When you browse on this site, cookies collect data to enhance your experience and personalize the content and advertising you see.
Visit our Privacy Policy to learn more. By continuing to use the site, you agree to this use of cookies and data.
  • In Spain
  • List of Countries
  • For 7 days
  • Water Temperature
  • Weather Map
  • Weather Widgets
  • user-avatar
    Login

    Hourly Weather Malanje

    Today, 26 May, Tuesday

    Time Temperature Precipitation Wind Pressure Humidity
    00:00 +20°C° 0 mm 1 mps 665 mmHg 66%
    01:00 +19°C° 0 mm 1 mps 665 mmHg 70%
    02:00 +19°C° 0 mm 1 mps 665 mmHg 76%
    03:00 +19°C° 0 mm 1 mps 664 mmHg 81%
    04:00 +18°C° 0 mm 1 mps 664 mmHg 87%
    05:00 +18°C° 0 mm 1 mps 665 mmHg 86%
    06:00 +19°C° 0 mm 1 mps 666 mmHg 85%
    07:00 +19°C° 0 mm 1 mps 666 mmHg 84%
    08:00 +22°C° 0 mm 1 mps 667 mmHg 71%
    09:00 +26°C° 0 mm 1 mps 668 mmHg 59%
    10:00 +29°C° 0 mm 1 mps 669 mmHg 47%
    11:00 +31°C° 0 mm 1 mps 668 mmHg 42%
    12:00 +33°C° 0 mm 1 mps 668 mmHg 37%
    13:00 +33°C° 0 mm 0 mps 668 mmHg 32%
    14:00 +33°C° 0 mm 1 mps 667 mmHg 32%
    15:00 +32°C° 0 mm 1 mps 666 mmHg 33%
    16:00 +31°C° 0 mm 1 mps 665 mmHg 34%
    17:00 +29°C° 0 mm 1 mps 665 mmHg 41%
    18:00 +26°C° 0 mm 1 mps 665 mmHg 48%
    19:00 +24°C° 0 mm 1 mps 665 mmHg 56%
    20:00 +23°C° 0 mm 1 mps 665 mmHg 60%
    21:00 +22°C° 0 mm 1 mps 665 mmHg 64%
    22:00 +22°C° 0 mm 1 mps 665 mmHg 68%
    23:00 +21°C° 0 mm 1 mps 665 mmHg 74%

    Tomorrow, 27 May, Wednesday

    Time Temperature Precipitation Wind Pressure Humidity
    00:00 +21°C° 0 mm 1 mps 665 mmHg 79%
    01:00 +20°C° 0 mm 1 mps 665 mmHg 84%
    02:00 +20°C° 0 mm 1 mps 665 mmHg 87%
    03:00 +19°C° 0 mm 1 mps 665 mmHg 91%
    04:00 +19°C° 0 mm 1 mps 665 mmHg 94%
    05:00 +19°C° 0 mm 1 mps 665 mmHg 92%
    06:00 +19°C° 0 mm 1 mps 666 mmHg 90%
    07:00 +18°C° 0 mm 0 mps 666 mmHg 87%
    08:00 +21°C° 0 mm 0 mps 667 mmHg 74%
    09:00 +27°C° 0 mm 1 mps 668 mmHg 62%
    10:00 +30°C° 0 mm 1 mps 669 mmHg 49%
    11:00 +32°C° 0 mm 1 mps 668 mmHg 43%
    12:00 +31°C° 0 mm 0 mps 668 mmHg 38%
    13:00 +33°C° 0 mm 0 mps 668 mmHg 33%
    14:00 +32°C° 0 mm 0 mps 667 mmHg 35%
    15:00 +30°C° 0 mm 0 mps 666 mmHg 37%
    16:00 +29°C° 0 mm 0 mps 665 mmHg 40%
    17:00 +29°C° 0 mm 1 mps 666 mmHg 43%
    18:00 +28°C° 0 mm 1 mps 666 mmHg 46%
    19:00 +27°C° 0 mm 1 mps 666 mmHg 49%
    20:00 +26°C° 0 mm 1 mps 666 mmHg 51%
    21:00 +26°C° 0 mm 1 mps 667 mmHg 54%
    22:00 +25°C° 0 mm 1 mps 667 mmHg 57%
    23:00 +24°C° 0 mm 1 mps 667 mmHg 60%

    Day after tomorrow, 28 May, Thursday

    Time Temperature Precipitation Wind Pressure Humidity
    00:00 +24°C° 0 mm 1 mps 666 mmHg 63%
    01:00 +23°C° 0 mm 1 mps 666 mmHg 66%
    02:00 +22°C° 0 mm 1 mps 665 mmHg 71%
    03:00 +21°C° 0 mm 1 mps 665 mmHg 76%
    04:00 +20°C° 0 mm 1 mps 665 mmHg 81%
    05:00 +20°C° 0 mm 1 mps 665 mmHg 79%
    06:00 +20°C° 0 mm 1 mps 666 mmHg 78%
    07:00 +20°C° 0 mm 1 mps 666 mmHg 77%
    08:00 +23°C° 0 mm 1 mps 667 mmHg 66%
    09:00 +26°C° 0 mm 1 mps 668 mmHg 55%
    10:00 +29°C° 0 mm 1 mps 668 mmHg 45%
    11:00 +31°C° 0 mm 1 mps 668 mmHg 41%
    12:00 +32°C° 0 mm 1 mps 667 mmHg 37%
    13:00 +33°C° 0 mm 1 mps 667 mmHg 32%
    14:00 +32°C° 0 mm 1 mps 666 mmHg 34%
    15:00 +32°C° 0 mm 1 mps 666 mmHg 36%
    16:00 +31°C° 0 mm 1 mps 665 mmHg 37%
    17:00 +29°C° 0 mm 1 mps 665 mmHg 39%
    18:00 +26°C° 0 mm 0 mps 665 mmHg 42%
    19:00 +24°C° 0 mm 0 mps 666 mmHg 44%
    20:00 +23°C° 0 mm 0 mps 666 mmHg 46%
    21:00 +23°C° 0 mm 0 mps 666 mmHg 48%
    22:00 +25°C° 0 mm 1 mps 666 mmHg 50%
    23:00 +24°C° 0 mm 1 mps 666 mmHg 54%

    29 May, Friday

    Time Temperature Precipitation Wind Pressure Humidity
    00:00 +23°C° 0 mm 1 mps 665 mmHg 59%
    01:00 +22°C° 0 mm 1 mps 665 mmHg 64%
    02:00 +21°C° 0 mm 1 mps 665 mmHg 63%
    03:00 +21°C° 0 mm 1 mps 665 mmHg 62%
    04:00 +21°C° 0 mm 1 mps 665 mmHg 61%
    05:00 +21°C° 0 mm 1 mps 665 mmHg 59%
    06:00 +21°C° 0 mm 1 mps 666 mmHg 58%
    07:00 +20°C° 0 mm 2 mps 666 mmHg 56%
    08:00 +23°C° 0 mm 2 mps 667 mmHg 49%
    09:00 +26°C° 0 mm 3 mps 668 mmHg 42%
    10:00 +29°C° 0 mm 3 mps 668 mmHg 34%
    11:00 +30°C° 0 mm 3 mps 668 mmHg 31%
    12:00 +31°C° 0 mm 3 mps 667 mmHg 28%
    13:00 +33°C° 0 mm 3 mps 666 mmHg 25%
    14:00 +32°C° 0 mm 2 mps 666 mmHg 25%
    15:00 +32°C° 0 mm 2 mps 665 mmHg 26%
    16:00 +32°C° 0 mm 2 mps 665 mmHg 27%
    17:00 +29°C° 0 mm 1 mps 665 mmHg 33%
    18:00 +26°C° 0 mm 1 mps 665 mmHg 38%
    19:00 +23°C° 0 mm 1 mps 665 mmHg 44%
    20:00 +21°C° 0 mm 0 mps 665 mmHg 45%
    21:00 +20°C° 0 mm 0 mps 665 mmHg 45%
    22:00 +19°C° 0 mm 0 mps 665 mmHg 46%
    23:00 +19°C° 0 mm 0 mps 665 mmHg 47%

    30 May, Saturday

    Time Temperature Precipitation Wind Pressure Humidity
    00:00 +20°C° 0 mm 1 mps 665 mmHg 48%
    01:00 +20°C° 0 mm 1 mps 665 mmHg 49%
    02:00 +19°C° 0 mm 1 mps 664 mmHg 50%
    03:00 +18°C° 0 mm 1 mps 664 mmHg 52%
    04:00 +18°C° 0 mm 1 mps 664 mmHg 53%
    05:00 +18°C° 0 mm 1 mps 665 mmHg 55%
    06:00 +18°C° 0 mm 1 mps 665 mmHg 56%
    07:00 +17°C° 0 mm 2 mps 665 mmHg 57%
    08:00 +20°C° 0 mm 2 mps 666 mmHg 50%
    09:00 +24°C° 0 mm 2 mps 667 mmHg 43%
    10:00 +28°C° 0 mm 3 mps 668 mmHg 35%
    11:00 +29°C° 0 mm 3 mps 667 mmHg 32%
    12:00 +31°C° 0 mm 3 mps 667 mmHg 28%
    13:00 +33°C° 0 mm 3 mps 667 mmHg 24%
    14:00 +33°C° 0 mm 3 mps 666 mmHg 24%
    15:00 +32°C° 0 mm 2 mps 666 mmHg 25%
    16:00 +31°C° 0 mm 2 mps 665 mmHg 26%
    17:00 +29°C° 0 mm 1 mps 665 mmHg 31%
    18:00 +26°C° 0 mm 1 mps 665 mmHg 36%
    19:00 +23°C° 0 mm 1 mps 665 mmHg 41%
    20:00 +21°C° 0 mm 0 mps 665 mmHg 42%
    21:00 +20°C° 0 mm 0 mps 665 mmHg 43%
    22:00 +19°C° 0 mm 0 mps 666 mmHg 44%
    23:00 +19°C° 0 mm 0 mps 665 mmHg 45%

    31 May, Sunday

    Time Temperature Precipitation Wind Pressure Humidity
    00:00 +18°C° 0 mm 0 mps 665 mmHg 46%
    01:00 +20°C° 0 mm 1 mps 665 mmHg 47%
    02:00 +19°C° 0 mm 1 mps 665 mmHg 49%
    03:00 +18°C° 0 mm 1 mps 664 mmHg 51%
    04:00 +18°C° 0 mm 1 mps 664 mmHg 53%
    05:00 +18°C° 0 mm 1 mps 665 mmHg 53%
    06:00 +17°C° 0 mm 2 mps 665 mmHg 53%
    07:00 +17°C° 0 mm 2 mps 666 mmHg 54%
    08:00 +20°C° 0 mm 3 mps 666 mmHg 47%
    09:00 +25°C° 0 mm 3 mps 667 mmHg 41%
    10:00 +28°C° 0 mm 4 mps 668 mmHg 35%
    11:00 +30°C° 0 mm 4 mps 667 mmHg 32%
    12:00 +31°C° 0 mm 3 mps 667 mmHg 29%
    13:00 +34°C° 0 mm 3 mps 667 mmHg 26%
    14:00 +33°C° 0 mm 3 mps 666 mmHg 27%
    15:00 +32°C° 0 mm 2 mps 666 mmHg 27%
    16:00 +32°C° 0 mm 2 mps 666 mmHg 28%
    17:00 +29°C° 0 mm 2 mps 666 mmHg 33%
    18:00 +26°C° 0 mm 1 mps 665 mmHg 39%
    19:00 +24°C° 0 mm 1 mps 665 mmHg 45%
    20:00 +23°C° 0 mm 1 mps 666 mmHg 46%
    21:00 +22°C° 0 mm 1 mps 666 mmHg 47%
    22:00 +20°C° 0 mm 0 mps 666 mmHg 49%
    23:00 +21°C° 0 mm 1 mps 666 mmHg 50%
    Show more